DMSP 5D-2 F11 DEB, 28319

Orbit data source: Space-Track

DMSP 5D-2 F11 DEB, 28319 is space debris in SSO originally from a launch on Thu, 28 Nov 1991 UTC launched from the Air Force Western Test Range (AFWTR). Debris objects in space refer to the collection of defunct objects orbiting the Earth. Examples of debris include non-operational satellites, rocket bodies, and fragments generated from explosions, collisions, or faulty payload assembly.

Loading next visibility...
Identifier
28319, 1991-082AG
Orbit
SSO
Country
Flag of USUS
Related business
Manufacturer
Unknown
Mission
Spacecraft
Bus & Motor
Unknown
Mass
Unknown
Launch date (UTC)
1991-11-28 (34 years ago)
Launch vehicle
Unknown
Launch site
Air Force Western Test Range (AFWTR)
Object type
Payload
Rocket body
Debris
Shape & HBR
Unknown shape, 0.1 m
Radar Cross Section
Small (<0.1 m²)

Expand to show TLE details & history
Last TLE update: 2 days ago

TLE from 2 days ago
0 DMSP 5D-2 F11 DEB
1 28319U 91082AG  25349.00310114  .00016506  00000-0  22465-2 0  9995
2 28319  98.7604  82.7068 0024658  65.0257 295.3509 14.78619611124936
Epoch: 2025-12-15T00:04Z
TLE epoch observation values (Epoch: 2025-12-15T00:04:27.938Z)
Latitude
-0.00004°
Longitude
-2.31751°
Altitude
629.308 km
Speed
7.548 km/s
True Right ascension
05h 30m 49s
True Declination
0° 00' 00"
Sunlit
Object was in full shadow at epoch
Visualization orbit readout
Latitude
Unknown
Longitude
Unknown
Altitude
Unknown
Speed
Unknown
Apparent Right ascension
Unknown
Apparent Declination
Unknown
Sunlit
N/A
Visualization observer readout
Local Sidereal Time
12:52:35
Azimuth
Unknown
Elevation
Unknown
Doppler factor
Unknown
Orbital elements
Apogee altitude
648.051 km
Perigee altitude
613.485 km
Semi-major axis
7,008.905 km
Eccentricity
0.00247
Inclination
98.7604°
RAAN
82.7068°
Arg. of periapsis
65.0257°
True anomaly
295.09521°
Mean anomaly
295.3509°
Eccentric anomaly
295.22309°
Mean motion
3.69886 °/min
Orbital period
97.33 mins
BSTAR
0.0022465
Loading maneuver chart data...
Computing Atmospheric mass density...

Documentation

Showing up to 5 results
|